Location: Bretagne
(43.8474°N, 0.4650°W)
Time: 22:55:07
(UTC+00:00)

Envisat - Pass Details

Date: 14 March 2026
Orbit: 761 x 762 km, 98.4° (Epoch: 13 April)

Event Time Altitude Azimuth Distance (km) Brightness Sun altitude
Rises 01:43:45 0° 26° (NNE) 3,233 7.0 -43.9°
Reaches altitude 10° 01:46:30 10° 40° (NE) 2,302 6.1 -43.6°
Enters shadow 01:46:56 12° 43° (NE) 2,169 5.9 -43.6°
